BEIDOU-3 M24

Last updated on Thu Nov 21 2024 00:02:31 GMT+0000 (Coordinated Universal Time)

1 44542U 19061A 24325.23760197 .00000008 00000+0 00000+0 0 9993 2 44542 54.4250 202.0905 0008997 12.2945 347.8144 1.86229387 35101
UTC large
Height (km)
Speed (km/s)
/
Latitude / Longitude
Inclination (degrees)
Orbital Period (minutes)
Azimuth
Elevation
Range (km)
Doppler Factor

Next 0 passes for location: London (51.5072 / 0.1276)

Sorry there are no passes over London.